Overview Statistics Trail Chart Weather Telemetry Raw packets
 

This is the latest recevied weather packets stored in our database for station/object DH9SB-6. If no packets are shown the sender has not sent any weather packets the latest 10 day(s).

<< 17 18 19 20 21 22 23 >>
Time Temp. Humidity Pressure Rain* Wind** Luminosity Snow
1787887066 21.67° C 80% - 0 mm - - -
1787886491 21.67° C 80% - 0 mm - - -
1787885915 21.67° C 80% - 0 mm - - -
1787885247 21.67° C 80% - 0 mm - - -
1787884667 21.67° C 79% - 0 mm - - -
1787884043 21.67° C 78% - 0 mm - - -
1787883467 22.22° C 78% - 0 mm - - -
1787882843 22.22° C 78% - 0 mm - - -
1787882267 22.22° C 78% - 0 mm - - -
1787881644 22.22° C 77% - 0 mm - - -
1787881067 22.22° C 77% - 0 mm - - -
1787880443 22.78° C 73% - 0 mm - - -
1787879867 22.78° C 73% - 0 mm - - -
1787879294 22.78° C 72% - 0 mm - - -
1787878381 23.33° C 70% - 0 mm - - -
1787877755 23.89° C 69% - 0 mm - - -
1787877178 24.44° C 67% - 0 mm - - -
1787876558 25° C 65% - 0 mm - - -
1787875979 25.56° C 62% - 0 mm - - -
1787875355 25° C 62% - 0 mm - - -
1787874778 23.33° C 66% - 0 mm - - -
1787874155 22.78° C 66% - 0 mm - - -
1787873579 22.78° C 66% - 0 mm - - -
1787872956 22.78° C 66% - 0 mm - - -
1787872379 22.78° C 65% - 0 mm - - -

* Rain latest hour (hover to see other rain measurements)
** Current wind speed in m/s (hover to see current wind gust speed)